Retour au catalogue

STARLINK-4574

ActifCommunicationsVLEO
NORAD 53733·PAYLOAD·🇺🇸 United States

Lancé Sep 5, 2022 depuis Cape Canaveral Space Force Station

Loading…

Prochains Passages (prochaines 24 heures)

TLE

FraisSource: CelesTrak SupGP

Époque: Sep 14, 2026, 21:25 UTC

1 53733C 22107AK  26257.89284722 -.00021156  00000+0 -64204-3 0  2579
2 53733  53.1576 110.0037 0001262  82.3673  84.0201 15.33554744    19

Suivez STARLINK-4574 en temps réel avec AllMySat

Download on the App Store